Home   Weather   Dalian   Past weeks

Flag for China Past Weather in Dalian, Liaoning, China — Yesterday and Last 2 Weeks

Now
34 °F

Fog.


Feels Like: 26 °F
Forecast: 26 / 33 °F
Wind: 10 mph from Northwest

Location: Dalian Airport

Current Time: Feb 22, 2017 at 6:57:06 pm

Latest Report: Feb 22, 2017 at 6:00 pm


Visibility: 3 mi

Pressure: 30.09 "Hg

Humidity: 75%

Dew Point: 27 °F

Location of DalianLocation

Past Weather in Dalian — Graph

°F

Dalian Temperature Yesterday

Maximum temperature yesterday: 37 °F (at 12:30 pm)
Minimum temperature yesterday: 19 °F (at 1:30 am)
Average temperature yesterday: 29 °F

High & Low Weather Summary for the Past Weeks

 TemperatureHumidityPressure
High55 °F (Feb 15, 12:30 pm)100% (Feb 22, 2:30 am)30.63 "Hg (Feb 22, 2:30 am)
Low14 °F (Feb 11, 4:30 am)16% (Feb 14, 11:00 am)29.65 "Hg (Feb 19, 1:30 pm)
Average31 °F54%30.29 "Hg
* Reported Feb 7 5:00 pm — Feb 22 5:30 pm, Dalian, Weather by CustomWeather, © 2017

Note: Actual official high and low records may vary slightly from our data, if they occured in-between our weather recording intervals... More about our weather records

Advertising

Dalian Weather History for the Previous 24 Hours

Scroll right to see more
 ConditionsComfort  
Time TempWeatherWind HumidityBarometerVisibility
5:30 pm
Wed, Feb 22
32 °FIce fog.10 mph80%30.09 "Hg3 mi
5:00 pm34 °FFog.10 mph75%30.07 "Hg3 mi
4:30 pm34 °FFog.10 mph75%30.04 "Hg2 mi
4:00 pm34 °FFog.13 mph75%30.04 "Hg2 mi
3:30 pm34 °FFog.15 mph75%30.04 "Hg2 mi
3:00 pm34 °FPartly sunny.15 mph75%30.04 "Hg4 mi
2:30 pm34 °FPartly sunny.13 mph75%30.04 "Hg4 mi
2:00 pm32 °FPartly sunny.13 mph75%30.04 "Hg5 mi
1:30 pm32 °FPartly sunny.15 mph80%30.04 "Hg4 mi
1:00 pm32 °FPartly sunny.15 mph80%30.04 "Hg4 mi
12:30 pm32 °FPartly sunny.15 mph87%30.04 "Hg4 mi
12:00 pm30 °FIce fog.15 mph93%30.09 "Hg2 mi
11:30 am30 °FLight snow. Ice fog.15 mph93%30.09 "Hg1 mi
11:00 am30 °FLight snow. Ice fog.13 mph100%30.12 "Hg1 mi
10:30 am32 °FLight snow. Ice fog.13 mph93%30.12 "Hg2 mi
10:00 am30 °FLight snow. Ice fog.10 mph93%30.12 "Hg2 mi
9:30 am30 °FLight snow. Ice fog.8 mph86%30.12 "Hg3 mi
9:00 am30 °FPartly sunny.10 mph86%30.12 "Hg5 mi
8:30 am30 °FIce fog.3 mph86%30.12 "Hg3 mi
8:00 am28 °FIce fog.1 mph93%30.12 "Hg2 mi
7:30 am27 °FIce fog.1 mph93%30.12 "Hg2 mi
7:00 am27 °FLight snow. Ice fog.3 mph93%30.12 "Hg2 mi
6:30 am27 °FLight snow. Ice fog.1 mph93%30.12 "Hg2 mi
6:00 am27 °FLight snow. Ice fog.1 mph100%30.15 "Hg3 mi
5:30 am27 °FLight snow. Ice fog.1 mph100%30.15 "Hg3 mi
5:00 am27 °FLight snow. Ice fog.1 mph100%30.15 "Hg3 mi
4:30 am28 °FLight snow. Ice fog.3 mph93%30.15 "Hg2 mi
4:00 am28 °FLight snow. Ice fog.6 mph93%30.15 "Hg1 mi
3:30 am28 °FLight snow. Ice fog.3 mph93%30.18 "Hg1 mi
3:00 am28 °FLight snow. Ice fog.6 mph93%30.18 "Hg2 mi
2:30 am27 °FLight snow. Ice fog.6 mph100%30.18 "Hg2 mi
2:00 am27 °FLight snow. Ice fog.8 mph93%30.21 "Hg2 mi
1:30 am27 °FLight snow. Ice fog.6 mph93%30.21 "Hg1 mi
1:00 am27 °FLight snow. Ice fog.1 mph93%30.27 "Hg2 mi
12:30 am27 °FLight snow. Ice fog.3 mph93%30.27 "Hg2 mi
12:00 am28 °FLight snow. Ice fog.6 mph74%30.30 "Hg3 mi
11:30 pm
Tue, Feb 21
30 °FPassing clouds.6 mph59%30.30 "HgN/A
11:00 pm30 °FPassing clouds.8 mph55%30.30 "HgN/A
10:30 pm30 °FPassing clouds.6 mph59%30.27 "HgN/A
10:00 pm30 °FPassing clouds.1 mph55%30.30 "HgN/A
9:30 pm30 °FPassing clouds.3 mph55%30.30 "HgN/A
9:00 pm30 °FPassing clouds.3 mph55%30.30 "HgN/A
8:30 pm30 °FPassing clouds.1 mph55%30.30 "HgN/A
8:00 pm30 °FPassing clouds.3 mph55%30.33 "HgN/A
7:30 pm30 °FPassing clouds.3 mph59%30.33 "HgN/A
7:00 pm30 °FPassing clouds.6 mph59%30.33 "HgN/A
6:30 pm30 °FPassing clouds.3 mph59%30.33 "HgN/A
6:00 pm30 °FPassing clouds.6 mph59%30.36 "HgN/A
Weather by CustomWeather, © 2017

See weather overviewHow to use our weather pages